This demonstration page uses our WeatherBlox Daily Observations layout. Learn more.

Left ArrowRight Arrow

Hourly Observations for August 23, 2019

Temp ( °F °C ) Dew Point ( °F °C ) Humidity (%) Winds ( mph kmh ) Pressure ( in mb ) Visibility ( mi km ) Precip ( " mm )
12:53 am 00:53 Clear 73 22.8 63 17.2 71 71 E 6 9 29.80 1009 10 16 0.00 0.00
1:53 am 01:53 Partly Cloudy 73 22.8 65 18.3 76 76 ENE 3 6 29.81 1010 10 16 0.00 0.00
2:53 am 02:53 Clear 72 22.2 65 18.3 79 79 ENE 6 9 29.82 1010 10 16 0.00 0.00
3:53 am 03:53 Clear 72 22.2 67 19.4 84 84 ESE 8 13 29.81 1010 10 16 0.00 0.00
4:53 am 04:53 Clear 71 21.7 67 19.4 87 87 SE 3 6 29.82 1010 10 16 0.00 0.00
5:53 am 05:53 Clear 71 21.7 67 19.4 87 87 VRB 3 6 29.84 1010 10 16 0.00 0.00
6:53 am 06:53 Clear 71 21.7 67 19.4 87 87 ENE 5 7 29.85 1011 10 16 0.00 0.00
7:53 am 07:53 Sunny 71 21.7 67 19.4 87 87 Calm 29.87 1011 10 16 0.00 0.00
8:53 am 08:53 Sunny 74 23.3 67 19.4 79 79 SSE 10 17 29.85 1011 10 16 0.00 0.00
9:53 am 09:53 Sunny 77 25 66 18.9 69 69 SE 7 11 29.85 1011 10 16 0.00 0.00
10:53 am 10:53 Sunny 80 26.7 66 18.9 62 62 SW 6 9 29.85 1011 10 16 0.00 0.00
11:53 am 11:53 Sunny 84 28.9 65 18.3 53 53 Calm 29.83 1010 10 16 0.00 0.00
12:53 pm 12:53 Sunny 88 31.1 63 17.2 43 43 WSW 3 6 29.81 1010 10 16 0.00 0.00
1:53 pm 13:53 Sunny 92 33.3 61 16.1 36 36 VRB 3 6 29.78 1009 10 16 0.00 0.00
2:53 pm 14:53 Sunny 92 33.3 59 15 33 33 SSW 7 11 29.76 1008 10 16 0.00 0.00
3:53 pm 15:53 Sunny 94 34.4 57 13.9 29 29 VRB 3 6 29.73 1007 10 16 0.00 0.00
4:53 pm 16:53 Sunny 95 35 58 14.4 29 29 VRB 3 6 29.70 1006 10 16 0.00 0.00
5:53 pm 17:53 Sunny 96 35.6 54 12.2 24 24 Calm 29.69 1006 10 16 0.00 0.00
6:53 pm 18:53 Sunny 83 28.3 64 17.8 53 53 E 20 31 29.74 1007 10 16 0.00 0.00
7:53 pm 19:53 Mostly Sunny 84 28.9 63 17.2 49 49 SE 9 15 29.74 1007 10 16 0.00 0.00
8:53 pm 20:53 Clear 79 26.1 64 17.8 60 60 ESE 15 24 29.78 1008 10 16 0.00 0.00
9:53 pm 21:53 Clear 76 24.4 64 17.8 67 67 SE 15 24 29.80 1009 10 16 0.00 0.00
10:53 pm 22:53 Clear 75 23.9 64 17.8 69 69 SSE 9 15 29.82 1010 10 16 0.00 0.00
11:53 pm 23:53 Clear 75 23.9 65 18.3 71 71 Calm 29.82 1010 10 16 0.00 0.00

Powered by AerisWeather